Погода в Ла Фронтере

Испания     27°45′27″N   18°00′22″W
темп.,
°C
ветер,
м/с
пор.,
м/с
влажн.,
%
обл.,
%
осадки,
мм/ч
давл.,
гПа
погр.,
м
6 мая, чт
чт601:00+19св910691 0.0 10201004
04:00+19ссв810702 0.0 10191095
07:00+19св11117217 0.0 10181120
10:00+19всв89721 0.0 1020880
13:00+19всв336757 0.0 1021827
16:00+20св44674 0.0 1019843
19:00+20св67715 0.0 1019780
22:00+19св910740 0.0 1020779
7 мая, пт
пт701:00+19св88754 0.0 1021794
04:00+19св777429 0.0 1019836
07:00+19ссв567157 0.0 1019992
10:00+19ссв667122 0.0 1020983
13:00+20св67713 0.0 1020834
16:00+20ссв66710 0.0 1019810
19:00+20ссз77706 0.0 1018996
22:00+20ссв45711 0.0 1019826
8 мая, сб
сб801:00+20ссв687342 0.0 10191024
04:00+19ссв6769100 0.1 10181098
07:00+19с5666100 0.1 10181112
10:00+19с4669100 0.1 1019841
13:00+20ссв56649 0.1 10191125
16:00+20с78650 0.0 10181131
19:00+20с67660 0.0 1018987
22:00+20с78670 0.0 10191034
9 мая, вс
вс901:00+20с57680 0.0 1019933
04:00+19с56700 0.0 1018731
07:00+20с46725 0.0 1018751
10:00+20с45724 0.0 1019645
13:00+20с45776 0.0 1019508
16:00+20с348015 0.0 1018517
19:00+21с348214 0.0 1017504
22:00+20ссв678631 0.1 1018569
10 мая, пн
пн1001:00+20ссв788134 0.3 1019515
04:00+20ссв787634 0.0 1018852
07:00+19ссв787314 0.0 1018850
10:00+20св810740 0.0 1020836
13:00+20св88730 0.0 1020815
16:00+20св77740 0.0 1019794
19:00+20св77760 0.0 1019849
22:00+20ссв78775 0.0 1021735